When you browse on this site, cookies collect data to enhance your experience and personalize the content and advertising you see.
Visit our Privacy Policy to learn more. By continuing to use the site, you agree to this use of cookies and data.
  • Em Portugal
  • Lista de países
  • Para 7 dias
  • Temperatura da água
  • Mapa do tempo
  • Widgets de tempo
  • user-avatar
    Iniciar Sessão

    Previsão horária em Seslave

    Hoje, 4 Junho, Quinta-feira

    Tempo Temperatura Precipitação Vento Pressão Humidade
    00:00 +12°C° 1.2 mm 3 m/s 742 mmHg 98%
    01:00 +12°C° 1.2 mm 3 m/s 741 mmHg 98%
    02:00 +13°C° 0 mm 2 m/s 741 mmHg 99%
    03:00 +13°C° 1.8 mm 2 m/s 740 mmHg 99%
    04:00 +13°C° 1.8 mm 2 m/s 739 mmHg 99%
    05:00 +13°C° 1.8 mm 2 m/s 738 mmHg 99%
    06:00 +13°C° 0.5 mm 2 m/s 738 mmHg 99%
    07:00 +13°C° 0.5 mm 1 m/s 738 mmHg 99%
    08:00 +13°C° 0 mm 2 m/s 737 mmHg 98%
    09:00 +14°C° 0 mm 2 m/s 737 mmHg 97%
    10:00 +13°C° 0 mm 3 m/s 738 mmHg 95%
    11:00 +14°C° 0 mm 3 m/s 738 mmHg 93%
    12:00 +16°C° 0.3 mm 3 m/s 738 mmHg 88%
    13:00 +17°C° 0.3 mm 3 m/s 738 mmHg 83%
    14:00 +18°C° 0 mm 3 m/s 739 mmHg 77%
    15:00 +18°C° 0.4 mm 3 m/s 739 mmHg 78%
    16:00 +18°C° 0.4 mm 3 m/s 739 mmHg 78%
    17:00 +18°C° 0.4 mm 3 m/s 739 mmHg 79%
    18:00 +16°C° 0.2 mm 2 m/s 739 mmHg 83%
    19:00 +15°C° 0.2 mm 2 m/s 739 mmHg 87%
    20:00 +14°C° 0.2 mm 2 m/s 739 mmHg 91%
    21:00 +13°C° 0.1 mm 2 m/s 740 mmHg 92%
    22:00 +13°C° 0.1 mm 2 m/s 740 mmHg 92%
    23:00 +11°C° 0.1 mm 3 m/s 740 mmHg 93%

    Amanhã, 5 Junho, Sexta-feira

    Tempo Temperatura Precipitação Vento Pressão Humidade
    00:00 +10°C° 0 mm 3 m/s 741 mmHg 94%
    01:00 +10°C° 0 mm 2 m/s 741 mmHg 95%
    02:00 +9°C° 0 mm 2 m/s 741 mmHg 97%
    03:00 +9°C° 0 mm 3 m/s 742 mmHg 96%
    04:00 +10°C° 0 mm 3 m/s 742 mmHg 95%
    05:00 +10°C° 0 mm 3 m/s 742 mmHg 94%
    06:00 +12°C° 0 mm 3 m/s 742 mmHg 88%
    07:00 +13°C° 0 mm 3 m/s 742 mmHg 82%
    08:00 +16°C° 0 mm 3 m/s 743 mmHg 75%
    09:00 +17°C° 0.4 mm 4 m/s 743 mmHg 72%
    10:00 +18°C° 0.4 mm 4 m/s 742 mmHg 69%
    11:00 +19°C° 0.4 mm 4 m/s 742 mmHg 66%
    12:00 +19°C° 0.5 mm 4 m/s 742 mmHg 66%
    13:00 +19°C° 0.5 mm 3 m/s 743 mmHg 67%
    14:00 +19°C° 0.5 mm 3 m/s 743 mmHg 67%
    15:00 +18°C° 0.7 mm 3 m/s 743 mmHg 73%
    16:00 +18°C° 0.7 mm 3 m/s 743 mmHg 79%
    17:00 +17°C° 0.7 mm 3 m/s 743 mmHg 85%
    18:00 +16°C° 0.1 mm 2 m/s 743 mmHg 89%
    19:00 +14°C° 0.1 mm 2 m/s 743 mmHg 92%
    20:00 +13°C° 0.1 mm 2 m/s 743 mmHg 95%
    21:00 +12°C° 0 mm 2 m/s 743 mmHg 96%
    22:00 +10°C° 0 mm 2 m/s 743 mmHg 96%
    23:00 +9°C° 0 mm 2 m/s 744 mmHg 97%

    Depois de amanhã, 6 Junho, Sábado

    Tempo Temperatura Precipitação Vento Pressão Humidade
    00:00 +9°C° 0 mm 2 m/s 744 mmHg 97%
    01:00 +9°C° 0 mm 2 m/s 744 mmHg 98%
    02:00 +9°C° 0 mm 2 m/s 745 mmHg 98%
    03:00 +9°C° 0 mm 2 m/s 745 mmHg 98%
    04:00 +10°C° 0 mm 2 m/s 745 mmHg 98%
    05:00 +10°C° 0 mm 2 m/s 745 mmHg 97%
    06:00 +13°C° 0 mm 2 m/s 745 mmHg 92%
    07:00 +15°C° 0 mm 2 m/s 745 mmHg 87%
    08:00 +17°C° 0 mm 3 m/s 745 mmHg 82%
    09:00 +19°C° 0 mm 3 m/s 745 mmHg 75%
    10:00 +20°C° 0 mm 4 m/s 745 mmHg 67%
    11:00 +22°C° 0 mm 4 m/s 745 mmHg 60%
    12:00 +22°C° 0.5 mm 4 m/s 745 mmHg 67%
    13:00 +22°C° 0.5 mm 4 m/s 745 mmHg 73%
    14:00 +22°C° 0.5 mm 4 m/s 745 mmHg 80%
    15:00 +21°C° 1 mm 4 m/s 745 mmHg 84%
    16:00 +20°C° 1 mm 3 m/s 745 mmHg 88%
    17:00 +19°C° 1 mm 2 m/s 745 mmHg 92%
    18:00 +19°C° 0.5 mm 2 m/s 745 mmHg 93%
    19:00 +19°C° 0.5 mm 2 m/s 745 mmHg 94%
    20:00 +18°C° 0.5 mm 3 m/s 746 mmHg 95%
    21:00 +17°C° 0 mm 2 m/s 746 mmHg 95%
    22:00 +17°C° 0 mm 2 m/s 746 mmHg 96%
    23:00 +16°C° 0 mm 2 m/s 747 mmHg 97%

    7 Junho, Domingo

    Tempo Temperatura Precipitação Vento Pressão Humidade
    00:00 +16°C° 0 mm 2 m/s 748 mmHg 97%
    01:00 +15°C° 0 mm 2 m/s 748 mmHg 97%
    02:00 +15°C° 0 mm 2 m/s 749 mmHg 97%
    03:00 +15°C° 0 mm 2 m/s 749 mmHg 96%
    04:00 +15°C° 0 mm 1 m/s 750 mmHg 96%
    05:00 +15°C° 0 mm 1 m/s 750 mmHg 95%
    06:00 +18°C° 0 mm 1 m/s 751 mmHg 88%
    07:00 +20°C° 0 mm 1 m/s 751 mmHg 81%
    08:00 +22°C° 0 mm 1 m/s 752 mmHg 74%
    09:00 +23°C° 0 mm 1 m/s 752 mmHg 66%
    10:00 +25°C° 0 mm 1 m/s 752 mmHg 58%
    11:00 +26°C° 0 mm 1 m/s 753 mmHg 49%
    12:00 +27°C° 0 mm 1 m/s 753 mmHg 48%
    13:00 +27°C° 0 mm 1 m/s 753 mmHg 47%
    14:00 +27°C° 0 mm 1 m/s 752 mmHg 45%
    15:00 +27°C° 0 mm 1 m/s 752 mmHg 50%
    16:00 +27°C° 0 mm 1 m/s 752 mmHg 56%
    17:00 +26°C° 0 mm 1 m/s 752 mmHg 61%
    18:00 +24°C° 0 mm 1 m/s 752 mmHg 66%
    19:00 +21°C° 0 mm 2 m/s 752 mmHg 71%
    20:00 +20°C° 0 mm 2 m/s 752 mmHg 77%
    21:00 +19°C° 0 mm 2 m/s 752 mmHg 79%
    22:00 +19°C° 0 mm 2 m/s 752 mmHg 82%
    23:00 +18°C° 0 mm 2 m/s 752 mmHg 84%

    8 Junho, Segunda-feira

    Tempo Temperatura Precipitação Vento Pressão Humidade
    00:00 +18°C° 0 mm 2 m/s 752 mmHg 88%
    01:00 +17°C° 0 mm 2 m/s 752 mmHg 92%
    02:00 +17°C° 0 mm 2 m/s 752 mmHg 95%
    03:00 +18°C° 0 mm 2 m/s 752 mmHg 94%
    04:00 +18°C° 0 mm 2 m/s 752 mmHg 93%
    05:00 +19°C° 0 mm 2 m/s 752 mmHg 92%
    06:00 +20°C° 0 mm 2 m/s 752 mmHg 87%
    07:00 +23°C° 0 mm 2 m/s 752 mmHg 81%
    08:00 +25°C° 0 mm 2 m/s 752 mmHg 76%
    09:00 +26°C° 0.1 mm 2 m/s 752 mmHg 71%
    10:00 +27°C° 0.1 mm 2 m/s 753 mmHg 65%
    11:00 +28°C° 0.1 mm 2 m/s 753 mmHg 60%
    12:00 +29°C° 0.1 mm 2 m/s 752 mmHg 59%
    13:00 +29°C° 0.1 mm 2 m/s 752 mmHg 57%
    14:00 +29°C° 0.1 mm 2 m/s 752 mmHg 56%
    15:00 +29°C° 0 mm 2 m/s 752 mmHg 59%
    16:00 +29°C° 0 mm 2 m/s 752 mmHg 61%
    17:00 +29°C° 0 mm 2 m/s 752 mmHg 63%
    18:00 +27°C° 0.1 mm 2 m/s 752 mmHg 72%
    19:00 +25°C° 0.1 mm 1 m/s 752 mmHg 80%
    20:00 +23°C° 0.1 mm 1 m/s 752 mmHg 88%
    21:00 +22°C° 0 mm 1 m/s 752 mmHg 90%
    22:00 +21°C° 0 mm 1 m/s 752 mmHg 92%
    23:00 +21°C° 0 mm 1 m/s 752 mmHg 93%

    9 Junho, Terça-feira

    Tempo Temperatura Precipitação Vento Pressão Humidade
    00:00 +20°C° 0 mm 1 m/s 752 mmHg 94%
    01:00 +20°C° 0 mm 1 m/s 752 mmHg 95%
    02:00 +20°C° 0 mm 1 m/s 752 mmHg 95%
    03:00 +20°C° 0 mm 1 m/s 752 mmHg 94%
    04:00 +20°C° 0 mm 1 m/s 753 mmHg 93%
    05:00 +21°C° 0 mm 1 m/s 753 mmHg 92%
    06:00 +23°C° 0 mm 1 m/s 753 mmHg 85%
    07:00 +24°C° 0 mm 1 m/s 753 mmHg 79%
    08:00 +26°C° 0 mm 1 m/s 753 mmHg 72%
    09:00 +27°C° 0 mm 1 m/s 753 mmHg 67%
    10:00 +28°C° 0 mm 2 m/s 753 mmHg 61%
    11:00 +30°C° 0 mm 2 m/s 753 mmHg 55%
    12:00 +30°C° 0 mm 2 m/s 753 mmHg 54%
    13:00 +30°C° 0 mm 2 m/s 753 mmHg 53%
    14:00 +30°C° 0 mm 2 m/s 752 mmHg 53%
    15:00 +30°C° 0.4 mm 2 m/s 752 mmHg 59%
    16:00 +29°C° 0.4 mm 2 m/s 752 mmHg 66%
    17:00 +28°C° 0.4 mm 2 m/s 752 mmHg 72%
    18:00 +27°C° 0.2 mm 1 m/s 752 mmHg 78%
    19:00 +25°C° 0.2 mm 1 m/s 752 mmHg 83%
    20:00 +23°C° 0.2 mm 1 m/s 752 mmHg 89%
    21:00 +23°C° 0 mm 1 m/s 752 mmHg 91%
    22:00 +22°C° 0 mm 1 m/s 752 mmHg 93%
    23:00 +21°C° 0 mm 1 m/s 753 mmHg 94%
    Mostrar mais